| time (UTC) | temp C | wind direction | speed KPH | gust KPH | rain 1hr cm | rain 24hr cm | rain mn cm | humidity % | barometer mb |
| 20260502163021 | 21 | 13 | 6.4 | 14.5 | 0.00 | 0.00 | 0.00 | 43 | 1022.1 |
| 20260502161511 | 20 | 51 | 4.8 | 14.5 | 0.00 | 0.00 | 0.00 | 48 | 1022.2 |
| 20260502151503 | 19 | 14 | 3.2 | 14.5 | 0.00 | 0.00 | 0.00 | 54 | 1022.1 |
| 20260502123057 | 11 | 29 | 1.6 | 8.0 | 0.00 | 0.00 | 0.00 | 82 | 1021.0 |
| 20260502121553 | 11 | 37 | 1.6 | 6.4 | 0.00 | 0.00 | 0.00 | 83 | 1020.7 |
| 20260502114604 | 10 | 41 | 3.2 | 8.0 | 0.00 | 0.00 | 0.00 | 83 | 1020.5 |
| 20260502113049 | 10 | 304 | 0.0 | 1.6 | 0.00 | 0.00 | 0.00 | 83 | 1020.1 |
| 20260502111553 | 10 | 304 | 0.0 | 1.6 | 0.00 | 0.00 | 0.00 | 83 | 1020.0 |
| 20260502110045 | 10 | 304 | 0.0 | 3.2 | 0.00 | 0.00 | 0.00 | 81 | 1020.0 |
| 20260502104550 | 11 | 304 | 0.0 | 0.0 | 0.00 | 0.00 | 0.00 | 79 | 1019.9 |
| 20260502103044 | 11 | 304 | 0.0 | 3.2 | 0.00 | 0.00 | 0.00 | 79 | 1019.8 |
| 20260502101612 | 11 | 304 | 0.0 | 4.8 | 0.00 | 0.00 | 0.00 | 79 | 1019.4 |
| 20260502071521 | 10 | 22 | 3.2 | 8.0 | 0.00 | 0.00 | 0.00 | 82 | 1019.3 |
| 20260502070022 | 9 | 26 | 3.2 | 9.7 | 0.00 | 0.00 | 0.00 | 84 | 1019.3 |
| 20260502064517 | 8 | 28 | 6.4 | 9.7 | 0.00 | 0.00 | 0.00 | 88 | 1019.4 |
| 20260502063014 | 7 | 42 | 0.0 | 0.0 | 0.00 | 0.00 | 0.00 | 86 | 1019.2 |
| 20260502061513 | 7 | 42 | 0.0 | 0.0 | 0.00 | 0.00 | 0.00 | 85 | 1019.1 |
| 20260502060013 | 8 | 42 | 0.0 | 0.0 | 0.00 | 0.00 | 0.00 | 85 | 1019.0 |
| 20260502054509 | 8 | 42 | 0.0 | 0.0 | 0.00 | 0.00 | 0.00 | 84 | 1018.9 |
| 20260502053006 | 8 | 42 | 0.0 | 0.0 | 0.00 | 0.00 | 0.00 | 84 | 1018.8 |
| 20260502051507 | 8 | 42 | 0.0 | 0.0 | 0.00 | 0.00 | 0.00 | 83 | 1018.8 |
| 20260502050007 | 8 | 42 | 0.0 | 0.0 | 0.00 | 0.00 | 0.00 | 82 | 1018.8 |
| 20260502044501 | 9 | 42 | 0.0 | 0.0 | 0.00 | 0.00 | 0.00 | 82 | 1018.9 |
| 20260502043106 | 9 | 42 | 0.0 | 0.0 | 0.00 | 0.00 | 0.00 | 82 | 1019.0 |
| 20260502041600 | 10 | 42 | 0.0 | 0.0 | 0.00 | 0.00 | 0.00 | 81 | 1019.1 |
| 20260502034559 | 10 | 42 | 0.0 | 0.0 | 0.00 | 0.00 | 0.00 | 80 | 1019.1 |
| 20260502033100 | 10 | 42 | 0.0 | 0.0 | 0.00 | 0.00 | 0.00 | 78 | 1019.1 |
| 20260502031558 | 11 | 42 | 0.0 | 0.0 | 0.00 | 0.00 | 0.00 | 77 | 1019.1 |
| 20260502030105 | 11 | 42 | 0.0 | 0.0 | 0.00 | 0.00 | 0.00 | 76 | 1018.9 |
| 20260502024556 | 11 | 42 | 0.0 | 0.0 | 0.00 | 0.00 | 0.00 | 75 | 1018.8 |
| 20260502023123 | 12 | 42 | 0.0 | 0.0 | 0.00 | 0.00 | 0.00 | 73 | 1018.6 |
| 20260502021556 | 12 | 42 | 0.0 | 0.0 | 0.00 | 0.00 | 0.00 | 71 | 1018.5 |
| 20260502020109 | 13 | 42 | 0.0 | 0.0 | 0.00 | 0.00 | 0.00 | 69 | 1018.2 |
| 20260502014555 | 13 | 42 | 0.0 | 0.0 | 0.00 | 0.00 | 0.00 | 66 | 1017.9 |
| 20260502013104 | 15 | 42 | 0.0 | 0.0 | 0.00 | 0.00 | 0.00 | 62 | 1017.9 |
| 20260502011604 | 16 | 42 | 0.0 | 0.0 | 0.00 | 0.00 | 0.00 | 61 | 1017.6 |
| 20260502010052 | 17 | 42 | 0.0 | 0.0 | 0.00 | 0.00 | 0.00 | 57 | 1017.5 |
| 20260502004608 | 18 | 42 | 0.0 | 3.2 | 0.00 | 0.00 | 0.00 | 55 | 1017.4 |
| 20260502003056 | 18 | 42 | 0.0 | 3.2 | 0.00 | 0.00 | 0.00 | 46 | 1017.2 |
| 20260502000041 | 20 | 5 | 0.0 | 8.0 | 0.00 | 0.00 | 0.00 | 40 | 1017.0 |
| 20260501234541 | 20 | 31 | 3.2 | 9.7 | 0.00 | 0.00 | 0.00 | 38 | 1017.0 |
| 20260501233047 | 20 | 29 | 1.6 | 6.4 | 0.00 | 0.00 | 0.00 | 37 | 1016.9 |
| 20260501231540 | 20 | 18 | 3.2 | 14.5 | 0.00 | 0.00 | 0.00 | 37 | 1016.8 |
| 20260501230041 | 21 | 51 | 4.8 | 14.5 | 0.00 | 0.00 | 0.00 | 37 | 1016.9 |
| 20260501224539 | 21 | 16 | 4.8 | 16.1 | 0.00 | 0.00 | 0.00 | 35 | 1016.9 |
| 20260501223037 | 22 | 9 | 9.7 | 19.3 | 0.00 | 0.00 | 0.00 | 35 | 1016.9 |
| 20260501221536 | 21 | 59 | 6.4 | 14.5 | 0.00 | 0.00 | 0.00 | 36 | 1016.9 |
| 20260501220108 | 22 | 32 | 8.0 | 17.7 | 0.00 | 0.00 | 0.00 | 33 | 1016.8 |
| 20260501214537 | 22 | 19 | 6.4 | 19.3 | 0.00 | 0.00 | 0.00 | 35 | 1016.7 |
| 20260501213034 | 23 | 5 | 6.4 | 16.1 | 0.00 | 0.00 | 0.00 | 38 | 1016.9 |
| 20260501211534 | 22 | 15 | 6.4 | 19.3 | 0.00 | 0.00 | 0.00 | 38 | 1017.1 |
| 20260501210039 | 22 | 19 | 8.0 | 20.9 | 0.00 | 0.00 | 0.00 | 36 | 1017.2 |
| 20260501204538 | 22 | 360 | 4.8 | 16.1 | 0.00 | 0.00 | 0.00 | 38 | 1017.2 |
| 20260501203033 | 22 | 88 | 3.2 | 14.5 | 0.00 | 0.00 | 0.00 | 38 | 1017.5 |
| 20260501201536 | 23 | 51 | 4.8 | 19.3 | 0.00 | 0.00 | 0.00 | 33 | 1018.1 |
| 20260501200026 | 23 | 45 | 3.2 | 12.9 | 0.00 | 0.00 | 0.00 | 38 | 1018.3 |
| 20260501194523 | 23 | 298 | 3.2 | 14.5 | 0.00 | 0.00 | 0.00 | 39 | 1018.6 |
| 20260501193031 | 23 | 10 | 6.4 | 14.5 | 0.00 | 0.00 | 0.00 | 38 | 1018.9 |
| 20260501191519 | 23 | 5 | 6.4 | 14.5 | 0.00 | 0.00 | 0.00 | 40 | 1019.1 |
| 20260501190017 | 23 | 21 | 8.0 | 17.7 | 0.00 | 0.00 | 0.00 | 45 | 1019.3 |
| 20260501184524 | 22 | 43 | 6.4 | 19.3 | 0.00 | 0.00 | 0.00 | 41 | 1019.4 |
| 20260501183013 | 21 | 32 | 9.7 | 16.1 | 0.00 | 0.00 | 0.00 | 46 | 1019.6 |
| 20260501181533 | 22 | 15 | 6.4 | 16.1 | 0.00 | 0.00 | 0.00 | 45 | 1019.8 |